Date,TemperatureHighF,TemperatureAvgF,TemperatureLowF,DewpointHighF,DewpointAvgF,DewpointLowF,HumidityHigh,HumidityAvg,HumidityLow,PressureMaxIn,PressureMinIn,WindSpeedMaxMPH,WindSpeedAvgMPH,GustSpeedMaxMPH,PrecipitationSumIn
2014-1-1,45,37,28,27,22,18,79,55,38,30.23,29.92,14,8,24,0.00
2014-1-2,39,31,11,36,27,9,95,85,57,29.92,29.56,16,8,33,0.12
2014-1-3,16,10,5,11,6,2,90,83,68,30.37,29.93,16,5,33,0.00
2014-1-4,38,29,16,24,10,2,64,45,36,30.26,30.02,17,11,30,0.00
2014-1-5,47,42,34,43,36,24,93,81,65,30.02,29.42,19,9,38,0.16
2014-1-6,46,11,-7,44,8,-11,94,88,78,30.27,29.40,16,9,33,0.21
2014-1-7,8,-1,-10,0,-7,-15,82,75,67,30.52,30.29,14,7,24,0.00
2014-1-8,5,5,4,-1,-1,-2,78,76,73,30.46,30.40,14,12,22,0.00
2014-1-9,43,36,29,26,20,13,60,52,47,30.41,30.21,8,1,17,0.00
2014-1-10,54,47,39,50,44,29,95,90,66,30.20,29.76,16,8,31,0.12
2014-1-11,56,49,36,52,46,32,95,88,74,29.74,29.39,16,10,31,0.84
2014-1-12,46,38,32,34,30,28,89,73,52,29.99,29.70,15,6,30,0.00
2014-1-13,46,41,38,38,33,29,94,72,62,29.92,29.68,17,9,31,0.06
2014-1-14,46,41,38,40,34,28,95,78,52,29.81,29.64,11,5,24,0.12
2014-1-15,37,35,30,31,30,28,92,81,76,29.81,29.76,9,4,19,0.00
2014-1-16,30,23,16,22,16,12,87,73,55,29.96,29.80,12,5,27,0.00
2014-1-17,39,28,15,28,22,13,92,77,58,29.90,29.67,15,8,36,0.00
2014-1-18,28,19,11,16,12,7,90,75,59,30.01,29.79,12,6,28,0.00
2014-1-19,37,30,25,26,22,13,85,71,60,29.88,29.75,13,7,26,0.00
2014-1-20,49,38,28,32,27,23,82,65,45,29.81,29.67,13,6,26,0.00
2014-1-21,41,37,32,31,28,27,85,70,57,29.65,29.51,13,2,23,0.00
2014-1-22,16,9,0,11,4,-3,89,78,59,30.07,29.90,7,3,19,0.00
2014-1-23,14,10,-1,10,3,-8,88,74,64,30.50,30.05,11,7,25,0.00
2014-1-24,14,5,-5,1,-4,-9,82,66,48,30.58,30.02,21,10,38,0.00
2014-1-25,26,18,12,21,10,-1,91,70,45,30.02,29.60,20,11,33,0.00
2014-1-26,41,28,14,30,14,-2,65,56,47,29.87,29.64,19,11,37,0.00
2014-1-27,42,27,9,31,16,0,89,64,42,30.19,29.61,13,7,29,0.00
2014-1-28,10,7,4,6,2,-3,88,80,66,30.28,30.18,6,2,16,0.00
2014-1-29,3,1,-2,0,-2,-5,87,86,85,30.27,30.22,3,1,9,0.00
2014-1-30,30,20,7,10,4,-3,69,50,36,30.29,30.03,19,8,34,0.00
2014-1-31,41,33,26,27,17,9,61,52,46,30.10,30.00,15,6,27,0.00
2014-2-1,59,48,37,36,30,26,74,52,33,30.01,29.84,13,8,26,0.00
2014-2-2,48,42,33,45,40,32,96,90,75,29.94,29.83,13,6,25,0.41
2014-2-3,33,30,28,32,28,26,96,95,95,30.18,29.79,7,1,17,0.76
2014-2-4,48,37,27,45,35,26,97,90,74,30.17,29.69,18,3,34,0.03
2014-2-5,49,48,47,46,46,46,95,93,90,29.70,29.56,18,12,33,0.06
2014-2-6,26,21,18,21,18,15,91,87,80,30.32,30.12,8,2,18,0.00
2014-2-7,34,24,20,24,20,18,91,85,65,30.28,30.18,3,0,13,0.01
2014-2-8,34,27,21,29,25,19,93,90,83,30.18,30.05,6,1,14,0.01
2014-2-9,35,32,27,34,30,26,95,93,89,30.06,29.89,10,4,21,0.01
2014-2-10,27,22,17,25,20,14,94,92,86,30.22,30.01,6,0,16,0.00
2014-2-11,30,20,13,20,14,11,92,79,59,30.29,30.18,3,0,11,0.01
2014-2-12,25,22,19,13,13,12,74,66,59,30.22,30.12,3,1,9,0.00
2014-2-13,29,24,20,28,23,18,95,93,89,29.78,29.60,9,4,19,0.00
2014-2-14,41,32,24,33,27,22,93,83,66,29.73,29.49,15,9,33,0.31
2014-2-15,34,22,16,33,19,14,94,88,78,30.05,29.45,14,7,33,0.04
2014-2-16,37,27,18,30,23,14,93,86,74,30.13,29.96,10,5,18,0.00
2014-2-17,46,35,24,37,27,21,93,76,48,30.14,29.82,21,7,40,0.09
2014-2-18,50,42,33,38,29,22,93,60,38,30.11,29.85,13,6,27,0.01
2014-2-19,59,50,44,50,39,27,95,67,43,29.95,29.71,15,6,36,0.22
2014-2-20,66,57,47,52,45,32,72,64,55,29.90,29.57,18,10,39,0.00
2014-2-21,62,46,36,53,34,21,94,65,40,29.96,29.47,15,7,40,0.42
2014-2-22,54,45,35,27,23,19,54,42,31,30.05,29.86,11,4,23,0.00
2014-2-23,59,48,35,35,29,22,91,48,37,29.91,29.75,14,5,26,0.01
2014-2-24,37,30,24,32,18,9,94,62,34,30.11,29.88,10,5,23,0.00
2014-2-25,36,29,26,20,16,10,68,57,45,30.04,29.90,5,1,16,0.00
2014-2-26,28,22,18,19,16,9,91,76,66,29.94,29.80,7,3,18,0.00
2014-2-27,32,22,14,11,8,1,67,54,38,29.96,29.78,12,5,26,0.00
2014-2-28,45,30,14,16,10,2,65,45,27,30.09,29.96,10,2,27,0.00
2014-3-1,52,42,34,38,27,15,74,55,44,30.13,30.00,11,5,23,0.00
2014-3-2,56,47,37,48,43,36,95,84,71,30.03,29.75,15,5,33,0.49
2014-3-3,35,28,20,34,26,19,95,95,93,29.87,29.78,5,3,15,0.10
2014-3-4,32,22,9,30,20,6,94,92,90,30.23,30.07,0,0,0,0.05
2014-3-5,40,32,26,36,28,25,96,88,64,30.13,30.04,3,0,12,0.05
2014-3-6,46,37,30,30,26,23,83,64,48,30.11,29.93,5,2,15,0.01
2014-3-7,53,42,33,40,35,26,93,76,58,29.94,29.80,5,1,14,0.02
2014-3-8,59,50,43,39,35,30,79,59,38,29.94,29.83,10,2,21,0.00
2014-3-9,52,45,38,38,33,26,87,66,43,30.03,29.88,9,5,18,0.00
2014-3-10,45,44,42,27,26,23,52,50,47,29.96,29.87,1,1,12,0.00
2014-3-11,65,54,44,46,42,38,81,63,43,29.70,29.53,8,4,21,0.00
2014-3-12,59,48,25,55,41,23,95,79,53,29.68,29.13,22,9,47,0.11
2014-3-13,30,24,16,22,14,8,93,68,42,30.15,29.68,13,8,32,0.00
2014-3-14,52,40,28,31,20,10,50,46,43,30.13,29.86,15,10,37,0.00
2014-3-15,57,51,46,38,32,27,70,50,35,29.92,29.82,11,6,31,0.00
2014-3-16,51,44,35,39,32,26,95,68,40,29.90,29.59,11,2,23,0.44
2014-3-17,35,32,30,34,31,29,96,96,95,29.76,29.60,2,0,7,0.06
2014-3-18,53,41,32,44,37,31,97,87,68,29.87,29.73,9,3,19,0.01
2014-3-19,58,46,41,46,40,37,91,81,63,29.85,29.73,16,9,35,0.00
2014-3-20,48,42,34,42,30,23,93,65,37,29.98,29.83,11,7,25,0.06
2014-3-21,60,49,39,30,25,20,56,42,24,30.00,29.82,8,4,27,0.00
2014-3-22,60,54,48,42,34,27,55,48,38,29.88,29.77,9,4,25,0.00
2014-3-23,48,37,30,32,29,21,93,74,48,30.12,29.87,8,3,20,0.03
2014-3-24,41,30,19,21,15,12,75,56,36,30.18,29.98,7,1,17,0.00
2014-3-25,32,27,21,27,21,13,93,78,46,30.00,29.78,13,5,30,0.01
2014-3-26,34,23,16,18,14,8,89,67,49,30.25,30.00,14,6,41,0.00
2014-3-27,57,42,29,26,19,12,54,41,29,30.21,29.92,21,9,40,0.00
2014-3-28,57,52,49,50,42,26,89,70,40,29.91,29.80,21,10,40,0.00
2014-3-29,57,49,30,54,47,29,94,91,86,29.90,29.46,14,6,31,0.39
2014-3-30,43,32,27,40,29,25,96,90,68,30.07,29.77,14,9,36,0.00
2014-3-31,63,47,34,34,30,25,76,53,33,30.11,29.95,7,1,14,0.00
2014-4-1,72,61,52,45,37,30,49,41,33,29.95,29.82,10,4,23,0.00
2014-4-2,73,65,53,53,46,36,57,51,43,29.91,29.81,9,2,22,0.00
2014-4-3,73,63,53,59,52,44,95,68,47,29.84,29.63,11,5,33,0.06
2014-4-4,61,58,53,56,54,48,93,85,75,29.77,29.53,14,6,39,0.24
2014-4-5,51,42,36,47,34,30,87,72,56,30.01,29.73,11,3,23,0.00
2014-4-6,60,49,34,39,34,28,79,58,41,30.00,29.80,10,4,23,0.00
2014-4-7,61,52,42,55,48,39,95,87,62,29.82,29.35,22,11,41,0.47
2014-4-8,55,47,40,49,38,34,91,73,56,29.64,29.43,13,5,32,0.00
2014-4-9,55,47,41,42,37,31,94,68,44,29.99,29.63,12,6,26,0.02
2014-4-10,64,54,44,40,35,30,60,48,36,30.07,29.91,11,6,31,0.00
2014-4-11,68,61,54,49,43,38,56,52,47,29.98,29.84,12,5,26,0.00
2014-4-12,72,64,56,52,49,45,73,58,45,30.03,29.85,11,4,26,0.00
2014-4-13,77,67,59,54,50,46,67,54,41,29.92,29.74,12,8,29,0.00
2014-4-14,66,62,58,56,54,52,91,75,63,29.73,29.54,20,10,38,0.00
2014-4-15,59,38,26,56,36,23,95,92,88,30.07,29.44,12,7,30,0.18
2014-4-16,52,35,21,29,23,19,89,66,38,30.30,30.07,9,2,22,0.05
2014-4-17,62,49,36,33,26,22,59,43,24,30.30,30.16,10,4,27,0.00
2014-4-18,60,52,44,43,34,24,55,49,41,30.20,30.03,8,2,22,0.00
2014-4-19,66,57,49,42,39,37,66,53,41,30.04,29.95,5,2,21,0.00
2014-4-20,70,59,48,40,35,29,69,44,23,30.10,29.97,7,3,20,0.00
2014-4-21,74,62,52,47,40,32,52,44,37,29.98,29.71,9,4,19,0.00
2014-4-22,65,60,54,55,50,40,94,69,53,29.71,29.54,9,4,22,0.07
2014-4-23,57,48,38,39,32,29,77,55,35,29.92,29.67,8,4,21,0.00
2014-4-24,71,57,42,38,34,29,65,43,27,29.93,29.69,6,2,18,0.00
2014-4-25,61,57,50,56,48,38,94,72,45,29.82,29.54,15,7,35,0.26
2014-4-26,72,60,49,49,44,40,92,60,32,29.86,29.76,9,3,29,0.00
2014-4-27,78,69,62,52,43,38,49,40,24,29.81,29.66,6,3,20,0.00
2014-4-28,73,63,59,63,57,47,94,82,45,29.69,29.58,14,5,51,0.29
2014-4-29,70,63,59,62,59,57,95,88,74,29.64,29.49,15,8,32,0.35
2014-4-30,73,62,52,61,56,50,95,80,61,29.73,29.55,14,8,32,0.28
2014-5-1,60,53,48,51,45,38,95,78,51,29.78,29.67,9,3,24,0.01
2014-5-2,59,52,44,42,38,35,72,61,50,29.82,29.70,5,2,19,0.00
2014-5-3,65,55,46,45,41,37,77,60,43,29.81,29.71,11,5,30,0.00
2014-5-4,75,64,53,51,46,41,66,52,38,29.84,29.73,16,5,33,0.00
2014-5-5,79,68,53,57,52,46,75,58,43,29.79,29.62,12,4,31,0.00
2014-5-6,79,71,64,57,53,48,62,53,42,29.74,29.63,9,4,24,0.00
2014-5-7,79,71,62,59,52,41,73,54,31,29.89,29.74,9,4,23,0.00
2014-5-8,78,71,64,60,53,48,66,54,39,30.00,29.86,9,3,27,0.00
2014-5-9,73,66,60,60,57,53,90,71,58,29.91,29.82,10,5,27,0.00
2014-5-10,62,59,57,59,57,55,94,92,88,29.92,29.83,14,5,32,0.46
2014-5-11,73,64,56,64,59,55,96,85,68,30.02,29.89,5,2,13,0.02
2014-5-12,78,70,63,68,62,58,85,76,66,29.99,29.88,9,3,33,0.00
2014-5-13,81,72,65,67,63,61,91,76,53,29.94,29.84,7,3,19,0.02
2014-5-14,80,71,64,65,60,56,92,71,46,29.92,29.73,10,6,29,0.00
2014-5-15,68,56,45,62,53,44,95,92,70,29.87,29.64,13,5,30,0.78
2014-5-16,53,46,41,46,42,37,95,86,68,29.97,29.80,9,2,25,0.09
2014-5-17,49,45,38,42,38,35,88,77,63,30.09,29.94,2,0,14,0.00
2014-5-18,60,49,42,43,40,37,90,72,48,30.13,30.04,2,1,12,0.00
2014-5-19,66,56,44,47,42,37,79,61,49,30.14,30.00,4,1,12,0.00
2014-5-20,72,62,52,60,52,42,80,70,57,30.07,29.89,7,4,20,0.00
2014-5-21,74,67,60,64,59,54,85,76,69,29.92,29.80,7,3,23,0.29
2014-5-22,74,66,59,66,61,56,95,84,72,29.87,29.79,13,4,30,0.23
2014-5-23,69,62,57,63,55,48,92,78,60,29.94,29.81,6,2,19,0.00
2014-5-24,68,60,51,55,50,46,84,71,55,30.02,29.93,3,0,14,0.00
2014-5-25,74,64,54,57,53,48,81,69,45,30.00,29.93,4,1,11,0.00
2014-5-26,76,67,60,66,60,56,88,79,70,30.00,29.88,5,2,17,0.02
2014-5-27,73,66,63,66,63,60,94,88,76,29.93,29.82,5,2,15,0.05
2014-5-28,75,68,64,69,63,59,94,85,70,29.88,29.80,7,1,19,0.33
2014-5-29,75,68,62,66,61,58,93,79,70,29.91,29.81,10,1,36,1.04
2014-5-30,76,69,62,68,64,60,94,84,73,29.92,29.84,4,1,12,0.00
2014-5-31,77,68,59,64,60,57,93,75,51,29.96,29.88,7,1,21,0.00
2014-6-1,75,67,61,64,59,56,84,76,67,30.04,29.94,8,5,23,0.00
2014-6-2,76,67,59,63,59,54,85,74,62,30.04,29.88,8,4,20,0.00
2014-6-3,71,65,60,67,62,58,95,88,73,29.94,29.81,5,3,12,0.15
2014-6-4,77,70,65,69,66,63,92,85,73,29.82,29.57,7,3,24,0.02
2014-6-5,69,64,59,66,62,57,95,92,87,29.76,29.53,6,1,20,0.42
2014-6-6,73,63,55,61,56,54,95,80,59,29.83,29.75,3,0,12,0.01
2014-6-7,78,68,56,65,59,53,90,75,61,29.83,29.70,4,1,11,0.00
2014-6-8,77,69,61,67,63,58,90,81,66,29.75,29.64,8,5,27,0.00
2014-6-9,74,64,57,66,60,56,95,87,69,29.77,29.67,3,1,12,0.25
2014-6-10,80,68,62,69,64,60,95,85,64,29.78,29.67,8,4,27,0.01
2014-6-11,74,66,61,66,62,59,95,90,77,29.74,29.62,7,3,38,0.78
2014-6-12,71,65,62,66,62,60,95,92,80,29.73,29.64,5,2,15,0.19
2014-6-13,73,66,61,64,61,59,95,86,64,29.78,29.66,3,1,15,0.13
2014-6-14,72,64,54,60,54,50,94,72,45,29.92,29.79,2,1,14,0.00
2014-6-15,80,71,62,68,60,49,78,69,56,29.98,29.86,8,3,16,0.00
2014-6-16,81,75,69,70,66,64,86,75,59,30.00,29.91,4,1,17,0.00
2014-6-17,82,75,68,70,66,63,88,74,60,29.98,29.88,4,2,13,0.00
2014-6-18,80,74,71,71,68,64,88,80,71,29.96,29.86,4,1,13,0.29
2014-6-19,82,73,63,72,67,60,92,83,64,29.94,29.84,7,3,20,0.33
2014-6-20,73,68,64,70,65,62,95,92,77,29.92,29.79,7,2,17,0.26
2014-6-21,76,69,64,69,65,62,95,87,68,29.80,29.69,4,1,15,0.05
2014-6-22,79,71,63,67,64,61,95,78,59,29.77,29.68,2,0,9,0.00
2014-6-23,81,73,66,70,65,60,89,77,61,29.85,29.74,6,4,22,0.00
2014-6-24,79,71,67,68,66,64,92,85,67,29.87,29.76,7,4,18,0.11
2014-6-25,76,68,64,67,65,62,95,89,74,29.83,29.75,7,3,22,0.24
2014-6-26,78,71,65,68,65,62,91,81,65,29.87,29.77,3,1,12,0.00
2014-6-27,82,72,66,68,65,63,93,80,59,29.90,29.82,4,0,12,0.01
2014-6-28,76,70,66,69,66,64,95,86,78,30.01,29.88,6,3,19,0.28
2014-6-29,77,70,66,71,67,64,96,92,80,30.01,29.90,8,4,18,0.14
2014-6-30,75,69,64,70,66,62,96,92,83,29.91,29.77,7,4,17,0.15
2014-7-1,80,73,67,73,69,65,96,88,72,29.78,29.69,8,4,23,0.01
2014-7-2,82,74,70,73,70,67,96,85,66,29.78,29.68,8,2,20,0.00
2014-7-3,72,67,60,67,62,55,95,85,71,29.92,29.75,4,1,18,0.00
2014-7-4,68,62,56,56,54,51,93,78,61,30.10,29.92,4,1,16,0.00
2014-7-5,76,66,57,57,53,51,81,65,46,30.13,29.99,3,1,12,0.00
2014-7-6,76,69,63,65,58,51,79,68,55,29.98,29.84,5,3,16,0.00
2014-7-7,80,72,64,68,62,57,82,71,59,29.85,29.72,5,3,21,0.00
2014-7-8,78,70,66,70,65,59,95,84,67,29.79,29.69,9,5,27,0.12
2014-7-9,75,68,65,70,66,63,96,92,80,29.84,29.73,5,2,18,0.28
2014-7-10,76,69,63,67,64,60,97,84,66,29.94,29.83,5,0,14,0.01
2014-7-11,80,73,65,66,62,59,84,71,55,30.01,29.92,1,0,7,0.00
2014-7-12,82,74,68,69,65,62,86,74,57,30.00,29.91,6,2,13,0.00
2014-7-13,79,74,68,74,68,65,91,83,73,29.92,29.80,7,3,19,0.00
2014-7-14,78,70,65,73,68,64,96,91,81,29.81,29.68,7,2,32,0.95
2014-7-15,71,66,59,68,63,55,97,91,76,29.75,29.65,5,2,17,0.60
2014-7-16,59,56,53,54,52,50,91,89,85,29.76,29.74,1,0,10,0.00
2014-7-17,72,63,55,59,54,51,86,74,59,29.94,29.84,2,0,9,0.00
2014-7-18,64,61,59,60,58,53,96,88,72,30.03,29.92,11,3,26,0.40
2014-7-19,65,62,59,63,60,58,96,95,92,29.98,29.87,10,4,25,0.52
2014-7-20,74,67,60,69,64,59,96,90,83,29.92,29.84,8,3,18,0.00
2014-7-21,81,72,65,70,66,63,94,83,66,29.93,29.85,6,2,17,0.00
2014-7-22,81,74,66,72,67,64,93,81,69,29.97,29.86,6,2,17,0.00
2014-7-23,72,70,69,68,67,66,91,89,86,29.89,29.84,5,3,12,0.00
2014-7-24,73,65,59,70,64,58,97,95,86,29.85,29.72,4,1,17,1.15
2014-7-25,73,63,56,66,60,56,97,91,77,29.95,29.83,1,0,7,0.01
2014-7-26,76,70,63,68,64,60,91,80,69,29.86,29.76,6,2,17,0.00
2014-7-27,72,68,65,69,66,63,96,92,80,29.79,29.62,11,5,30,0.33
2014-7-28,68,64,59,65,60,57,96,88,78,29.79,29.62,9,3,32,0.09
2014-7-29,65,60,55,57,55,51,95,84,71,29.91,29.77,6,1,21,0.00
2014-7-30,54,54,53,52,51,51,93,92,90,29.92,29.91,0,0,0,0.00
2014-7-31,76,68,61,64,60,56,88,77,64,29.93,29.89,6,1,17,0.00
2014-8-1,72,66,61,66,61,57,90,82,74,29.93,29.87,5,2,17,0.00
2014-8-2,76,65,59,67,61,57,93,87,68,29.94,29.83,5,2,19,0.01
2014-8-3,71,64,58,64,60,56,94,85,72,29.98,29.90,3,1,11,0.00
2014-8-4,75,67,60,64,61,57,93,81,68,29.96,29.87,2,0,11,0.00
2014-8-5,77,70,64,66,62,60,87,77,62,29.89,29.83,4,1,12,0.00
2014-8-6,67,67,66,60,60,60,82,79,77,29.85,29.81,2,1,7,0.00
2014-8-7,74,67,62,66,63,61,96,86,69,29.89,29.79,2,0,9,0.00
2014-8-8,67,66,64,65,63,60,96,91,82,29.92,29.81,6,2,17,0.39
2014-8-9,72,67,65,70,66,64,96,96,90,29.88,29.80,6,3,14,0.49
2014-8-10,71,67,64,69,65,62,96,94,91,29.87,29.79,8,3,17,0.34
2014-8-11,73,69,66,69,66,63,96,92,87,29.83,29.68,7,4,19,0.27
2014-8-12,76,68,64,71,66,60,97,93,82,29.73,29.60,6,3,19,0.09
2014-8-13,63,60,56,60,57,55,96,91,85,29.90,29.73,6,1,17,0.00
2014-8-14,72,65,57,61,59,55,93,80,65,29.91,29.80,4,2,13,0.03
2014-8-15,73,66,61,65,60,58,95,83,61,29.87,29.80,5,1,16,0.03
2014-8-16,74,67,60,64,60,55,88,76,58,29.88,29.81,3,1,11,0.00
2014-8-17,74,69,65,68,65,61,94,87,82,29.84,29.77,4,2,14,0.01
2014-8-18,71,68,65,68,66,64,97,94,89,29.76,29.63,8,3,25,0.52
2014-8-19,78,70,65,70,67,64,97,89,76,29.73,29.65,2,1,12,0.00
2014-8-20,79,69,62,73,67,61,97,92,73,29.94,29.71,10,3,31,0.61
2014-8-21,77,67,62,73,65,61,97,93,86,29.98,29.87,5,3,25,0.24
2014-8-22,81,73,67,74,69,66,96,88,72,29.90,29.78,5,2,21,1.01
2014-8-23,78,72,67,72,69,65,97,92,81,29.84,29.74,2,0,14,0.10
2014-8-24,78,71,63,71,67,61,96,88,74,29.88,29.74,5,2,16,0.00
2014-8-25,76,68,60,66,62,58,94,82,68,29.95,29.87,5,2,17,0.00
2014-8-26,76,67,58,66,60,54,89,78,66,29.98,29.90,4,1,12,0.00
2014-8-27,78,70,63,65,60,54,83,71,57,29.94,29.83,2,0,7,0.00
2014-8-28,79,72,64,71,67,62,93,85,72,29.87,29.81,1,0,12,0.00
2014-8-29,83,74,66,72,68,64,95,83,63,29.90,29.83,7,2,16,0.02
2014-8-30,83,74,67,69,67,65,92,79,60,29.97,29.86,6,4,16,0.00
2014-8-31,74,69,64,70,66,62,96,91,79,29.93,29.88,8,4,24,0.29
2014-9-1,80,72,66,72,68,64,96,86,74,29.93,29.83,6,3,21,0.00
2014-9-2,81,73,64,73,68,62,96,86,73,29.88,29.73,7,3,23,0.05
2014-9-3,77,68,63,71,66,62,97,93,80,29.92,29.81,8,1,20,0.19
2014-9-4,81,72,67,74,68,66,95,89,68,29.96,29.88,6,3,16,0.28
2014-9-5,77,70,66,72,68,64,95,92,82,30.01,29.87,4,1,15,0.10
2014-9-6,79,70,64,71,67,63,96,92,74,29.91,29.77,5,1,26,0.41
2014-9-7,65,63,61,64,62,60,98,97,94,29.95,29.82,2,0,10,0.03
2014-9-8,72,65,60,68,63,59,98,92,83,29.93,29.86,5,2,16,0.01
2014-9-9,77,68,61,70,64,60,95,88,75,29.95,29.84,5,2,17,0.00
2014-9-10,75,69,64,69,65,62,94,89,80,29.88,29.76,7,5,19,0.00
2014-9-11,79,69,65,73,66,63,97,92,82,29.84,29.76,8,3,25,0.51
2014-9-12,66,64,61,66,63,60,98,97,97,29.94,29.83,2,0,7,0.03
2014-9-13,65,57,53,65,56,52,98,98,97,30.10,29.84,4,1,15,0.85
2014-9-14,65,56,50,62,55,50,97,96,92,30.10,30.01,0,0,5,0.00
2014-9-15,70,63,57,66,60,55,95,92,85,30.04,29.91,6,2,17,0.01